[Iaude] MPEC J135: 2024 JG3 [a=1.04,e=0.56,i=15.4,H=22.6]
    mpec at cfa.harvard.edu 
    mpec at cfa.harvard.edu
       
    Wed May  8 02:48:01 EDT 2024
    
    
  
M.P.E.C. 2024-J135                                  Issued 2024 May 8, 06:46 UT
     The Minor Planet Electronic Circulars contain information on unusual
         minor planets, routine data on comets and natural satellites,
         and occasional editorial announcements.  They are published
    on behalf of Division F of the International Astronomical Union by the
          Minor Planet Center, Smithsonian Astrophysical Observatory,
                          Cambridge, MA 02138, U.S.A.
			  
             Prepared using the Tamkin Foundation Computer Network
                              MPC at CFA.HARVARD.EDU
            URL https://www.minorplanetcenter.net/    ISSN 1523-6714
                                    2024 JG3                                    
Observations:
     K24J03G*1C2024 05 06.33814616 53 51.954+51 08 24.97         20.95GVEJ135G96
     K24J03G 1C2024 05 06.34339616 53 48.433+51 08 08.12         20.82GVEJ135G96
     K24J03G 1C2024 05 06.34864016 53 44.884+51 07 52.10         21.29GVEJ135G96
     K24J03G KC2024 05 06.41946716 52 57.346+51 04 10.06         21.12GVEJ135I52
     K24J03G KC2024 05 06.42133116 52 56.154+51 04 05.12         21.55GVEJ135I52
     K24J03G KC2024 05 06.42321316 52 54.851+51 03 59.22         21.77GVEJ135I52
     K24J03G KC2024 05 06.42508316 52 53.533+51 03 52.99               VEJ135I52
     K24J03G KC2024 05 07.23583316 44 30.714+50 20 52.22         21.99GVEJ135I52
     K24J03G KC2024 05 07.23865116 44 29.008+50 20 43.12         21.11GVEJ135I52
     K24J03G KC2024 05 07.24149216 44 27.200+50 20 34.84         22.24GVEJ135I52
     K24J03G  C2024 05 07.39142516 42 54.453+50 12 40.24         21.3 GVEJ135H01
     K24J03G  C2024 05 07.39651116 42 51.343+50 12 23.88         21.5 GVEJ135H01
     K24J03G  C2024 05 07.40779416 42 44.402+50 11 47.13         21.4 GVEJ135H01
     K24J03G  C2024 05 07.41327516 42 41.040+50 11 29.28         22.3 GVEJ135H01
     K24J03G KC2024 05 08.24521916 34 46.66 +49 26 25.7          22.3 GVEJ135H21
     K24J03G KC2024 05 08.24661816 34 45.87 +49 26 21.4          22.1 GVEJ135H21
     K24J03G KC2024 05 08.26712616 34 34.21 +49 25 15.4          21.8 GVEJ135H21
Observer details:
G96 Mt. Lemmon Survey.  Observer G. J. Leonard.  Measurers T. Beuden, V. F.
    Carvajal, D. Fay, J. B. Fazekas, D. C. Fuls, A. R. Gibbs, A. D. Grauer, H.
    Groeller, J. K. Hogan, R. A. Kowalski, S. M. Larson, G. J. Leonard, D.
    Rankin, R. L. Seaman, F. C. Shelly, K. W. Wierzchos.  1.5-m reflector +
    10K CCD.
H01 Magdalena Ridge Observatory, Socorro.  Observers W. H. Ryan, E. V. Ryan.
    Measurer W. H. Ryan.  2.4-m f/8.9 Ritchey-Chretien + CCD.
H21 Astronomical Research Observatory, Westfield.  Observer R. Holmes.
    Measurers T. Linder, R. Holmes, L. Horn.  0.76-m f/3.0 astrograph + CCD.
I52 Steward Observatory, Mt. Lemmon Station.  Observers R. A. Kowalski, H.
    Groeller.  Measurers T. Beuden, V. F. Carvajal, D. Fay, J. B. Fazekas, D.
    C. Fuls, A. R. Gibbs, A. D. Grauer, H. Groeller, J. K. Hogan, R. A.
    Kowalski, S. M. Larson, G. J. Leonard, D. Rankin, R. L. Seaman, F. C.
    Shelly, K. W. Wierzchos.  1.0-m prime focus + CCD.
Orbital elements:
2024 JG3                                                 Earth MOID = 0.0908 AU
Epoch 2024 Mar. 31.0 TT = JDT 2460400.5                 MPC                     
M  29.84065              (2000.0)            P               Q                  
n   0.92484585     Peri.  279.61962     -0.15718600     -0.98756513             
a   1.0433335      Node   179.40252     +0.97783659     -0.15602939             
e   0.5605169      Incl.   15.41489     +0.13830463     -0.01923412             
P   1.07           H   22.65          G   0.15           U   9                  
Residuals in seconds of arc
240506 G96  0.1+  0.3+    240506 I52  0.9-  0.1-    240507 H01  0.1-  0.0
240506 G96  0.2+  0.4-    240507 I52  0.0   0.2+    240507 H01  0.1-  0.0
240506 G96  0.0   0.2-    240507 I52  0.3+  0.2-    240508 H21  0.1-  0.2-
240506 I52  0.3-  0.9-    240507 I52  0.3-  0.3+    240508 H21  0.0   0.0
240506 I52  0.2+  0.1+    240507 H01  0.1-  0.1-    240508 H21  0.1+  0.1+
240506 I52  0.2-  0.2+    240507 H01  0.0   0.1+
Ephemeris:
2024 JG3                 a,e,i = 1.04, 0.56, 15                  q = 0.4585
Date    TT    R. A. (2000) Decl.     Delta      r    Elong.  Phase     V
2024 04 08    23 55 03.4 +23 55 11   0.2120  0.8124    24.1   149.7    27.2
...
2024 04 23    20 43 43.4 +52 58 21   0.1729  0.9719    74.0    96.2    22.2
...
2024 05 01    18 06 50.5 +54 58 27   0.1986  1.0497    96.8    72.4    21.8
...
2024 05 07    16 46 52.2 +50 33 26   0.2319  1.1045   108.4    60.1    21.8
2024 05 08    16 37 02.9 +49 39 43   0.2383  1.1133   109.9    58.5    21.9
2024 05 09    16 28 02.6 +48 45 09   0.2449  1.1220   111.3    56.9    21.9
...
2024 05 15    15 47 30.4 +43 19 02   0.2880  1.1727   117.7    49.8    22.1
...
2024 05 23    15 16 30.5 +36 46 50   0.3534  1.2355   121.8    44.2    22.5
...
2024 06 07    14 51 34.1 +26 58 40   0.4939  1.3395   121.3    40.4    23.3
A. U. Tomatic                (C) Copyright 2024 MPC           M.P.E.C. 2024-J135
    
    
More information about the Iaude
mailing list